JLY7161 SBCT-SBGL

Flight info

Callsign JLY7161
Flight time N/A
Altitude 35000
Route EDVEB UM548 KOXAG UM540 ANISE DCT DORLU UZ42 VUREP
Aircraft B738/M-SDE2E3FGHIRWXY/LB1

Departure

Time 2026-05-06 22:11
Airport Curitiba-Afonso Pena International Airport (SBCT)

Arrival

Time N/A
Airport Rio Galeão – Tom Jobim International Airport (SBGL)
Time Latitude Longitude Altitude Speed Heading
2026-05-06 22:00 -25.53453 -49.17337 2985 ft 0 kts 224°
2026-05-06 22:02 -25.53442 -49.17325 2985 ft 4 kts 224°
2026-05-06 22:02 -25.53425 -49.17305 2985 ft 3 kts 234°
2026-05-06 22:02 -25.53419 -49.17290 2985 ft 2 kts 282°
2026-05-06 22:02 -25.53424 -49.17279 2985 ft 2 kts 310°
2026-05-06 22:03 -25.53432 -49.17270 2985 ft 2 kts 315°
2026-05-06 22:03 -25.53438 -49.17263 2984 ft 0 kts 316°
2026-05-06 22:03 -25.53435 -49.17266 2984 ft 3 kts 316°
2026-05-06 22:04 -25.53412 -49.17275 2985 ft 4 kts
2026-05-06 22:04 -25.53385 -49.17259 2985 ft 5 kts 32°
2026-05-06 22:04 -25.53349 -49.17255 2985 ft 6 kts 340°
2026-05-06 22:04 -25.53314 -49.17285 2985 ft 8 kts 316°
2026-05-06 22:05 -25.53267 -49.17334 2986 ft 11 kts 316°
2026-05-06 22:05 -25.53207 -49.17402 2986 ft 14 kts 315°
2026-05-06 22:05 -25.53131 -49.17485 2987 ft 17 kts 315°
2026-05-06 22:05 -25.53046 -49.17580 2988 ft 18 kts 315°
2026-05-06 22:06 -25.52981 -49.17688 2988 ft 18 kts 276°
2026-05-06 22:06 -25.52978 -49.17821 2989 ft 17 kts 271°
2026-05-06 22:06 -25.52932 -49.17915 2990 ft 16 kts 315°
2026-05-06 22:06 -25.52837 -49.17992 2988 ft 19 kts 349°
2026-05-06 22:07 -25.52712 -49.17997 2990 ft 16 kts 358°
2026-05-06 22:07 -25.52590 -49.18002 2990 ft 19 kts 358°
2026-05-06 22:07 -25.52472 -49.18011 2990 ft 17 kts 342°
2026-05-06 22:07 -25.52374 -49.18103 2991 ft 20 kts 315°
2026-05-06 22:08 -25.52266 -49.18203 2992 ft 21 kts 341°
2026-05-06 22:08 -25.52217 -49.18269 2992 ft 7 kts 213°
2026-05-06 22:08 -25.52229 -49.18266 2992 ft 1 kts 141°
2026-05-06 22:08 -25.52232 -49.18262 2992 ft 1 kts 134°
2026-05-06 22:09 -25.52235 -49.18259 2992 ft 1 kts 134°
2026-05-06 22:09 -25.52238 -49.18256 2992 ft 1 kts 134°
2026-05-06 22:09 -25.52240 -49.18253 2992 ft 1 kts 134°
2026-05-06 22:09 -25.52243 -49.18250 2992 ft 0 kts 134°
2026-05-06 22:10 -25.52245 -49.18248 2992 ft 0 kts 134°
2026-05-06 22:10 -25.52247 -49.18246 2992 ft 1 kts 134°
2026-05-06 22:10 -25.52417 -49.18056 2990 ft 77 kts 135°
2026-05-06 22:10 -25.52982 -49.17428 2989 ft 151 kts 135°
2026-05-06 22:11 -25.53856 -49.16461 3213 ft 196 kts 134°
2026-05-06 22:11 -25.54858 -49.15307 3783 ft 221 kts 132°
2026-05-06 22:11 -25.56014 -49.14036 4324 ft 243 kts 130°
2026-05-06 22:11 -25.56732 -49.12375 5026 ft 248 kts 94°
2026-05-06 22:12 -25.56641 -49.10475 5698 ft 248 kts 79°
2026-05-06 22:12 -25.56335 -49.08575 6235 ft 253 kts 77°
2026-05-06 22:12 -25.55990 -49.06655 6804 ft 256 kts 77°
2026-05-06 22:12 -25.55643 -49.04713 7350 ft 258 kts 78°
2026-05-06 22:13 -25.55300 -49.02752 7918 ft 260 kts 78°
2026-05-06 22:13 -25.54963 -49.00776 8478 ft 262 kts 78°
2026-05-06 22:13 -25.54627 -48.98782 9023 ft 264 kts 78°
2026-05-06 22:13 -25.54290 -48.96766 9580 ft 267 kts 78°
2026-05-06 22:14 -25.53952 -48.94745 10137 ft 268 kts 78°
2026-05-06 22:14 -25.53611 -48.92706 10583 ft 270 kts 77°
2026-05-06 22:14 -25.53197 -48.90664 11025 ft 274 kts 75°
2026-05-06 22:14 -25.52740 -48.88598 11478 ft 278 kts 74°
2026-05-06 22:15 -25.52272 -48.86510 11933 ft 281 kts 75°
2026-05-06 22:15 -25.51798 -48.84388 12375 ft 286 kts 75°
2026-05-06 22:15 -25.51319 -48.82234 12893 ft 290 kts 75°
2026-05-06 22:15 -25.50834 -48.80041 13498 ft 296 kts 75°
2026-05-06 22:16 -25.50346 -48.77833 14256 ft 295 kts 75°
2026-05-06 22:16 -25.49858 -48.75617 14896 ft 298 kts 76°
2026-05-06 22:16 -25.49362 -48.73369 15487 ft 303 kts 76°
2026-05-06 22:16 -25.48868 -48.71124 16123 ft 305 kts 76°
2026-05-06 22:17 -25.48361 -48.68827 16782 ft 308 kts 76°
2026-05-06 22:17 -25.47851 -48.66510 17403 ft 312 kts 77°
2026-05-06 22:17 -25.47335 -48.64172 18034 ft 314 kts 77°
2026-05-06 22:17 -25.46814 -48.61814 18662 ft 317 kts 77°
2026-05-06 22:18 -25.46288 -48.59432 19191 ft 321 kts 77°
2026-05-06 22:18 -25.45754 -48.57016 19697 ft 325 kts 77°
2026-05-06 22:18 -25.45212 -48.54568 20226 ft 330 kts 77°
2026-05-06 22:18 -25.44663 -48.52091 20754 ft 333 kts 77°
2026-05-06 22:19 -25.44105 -48.49581 21280 ft 337 kts 77°
2026-05-06 22:19 -25.43540 -48.47045 21790 ft 341 kts 77°
2026-05-06 22:19 -25.42968 -48.44480 22304 ft 345 kts 77°
2026-05-06 22:19 -25.42387 -48.41879 22813 ft 349 kts 78°
2026-05-06 22:20 -25.41808 -48.39285 23311 ft 353 kts 78°
2026-05-06 22:20 -25.41215 -48.36633 23797 ft 357 kts 78°
2026-05-06 22:20 -25.40616 -48.33953 24207 ft 361 kts 78°
2026-05-06 22:20 -25.40010 -48.31246 24619 ft 364 kts 78°
2026-05-06 22:21 -25.39397 -48.28512 25021 ft 368 kts 78°
2026-05-06 22:21 -25.38779 -48.25757 25431 ft 372 kts 78°
2026-05-06 22:21 -25.38154 -48.22969 25826 ft 375 kts 78°
2026-05-06 22:21 -25.37521 -48.20152 26233 ft 379 kts 79°
2026-05-06 22:22 -25.36883 -48.17319 26687 ft 380 kts 79°
2026-05-06 22:22 -25.36245 -48.14484 27172 ft 380 kts 79°
2026-05-06 22:22 -25.35606 -48.11652 27663 ft 380 kts 79°
2026-05-06 22:22 -25.34966 -48.08812 28093 ft 381 kts 79°
2026-05-06 22:23 -25.34322 -48.05958 28535 ft 382 kts 79°
2026-05-06 22:23 -25.33678 -48.03108 28983 ft 382 kts 79°
2026-05-06 22:23 -25.33030 -48.00240 29254 ft 389 kts 79°
2026-05-06 22:23 -25.32396 -47.97409 29346 ft 399 kts 81°
2026-05-06 22:24 -25.31833 -47.94371 29457 ft 408 kts 83°
2026-05-06 22:24 -25.31314 -47.91247 29564 ft 418 kts 83°
2026-05-06 22:24 -25.30776 -47.88046 29661 ft 429 kts 83°
2026-05-06 22:24 -25.30207 -47.84764 29757 ft 439 kts 82°
2026-05-06 22:25 -25.29610 -47.81417 29859 ft 449 kts 82°
2026-05-06 22:25 -25.28997 -47.78007 29954 ft 458 kts 82°
2026-05-06 22:25 -25.27736 -47.71012 30120 ft 475 kts 82°
2026-05-06 22:26 -25.26424 -47.63717 30247 ft 491 kts 82°
2026-05-06 22:26 -25.25036 -47.56212 30378 ft 505 kts 82°
2026-05-06 22:27 -25.23605 -47.48545 30590 ft 514 kts 82°
2026-05-06 22:27 -25.22884 -47.44675 30806 ft 515 kts 82°
2026-05-06 22:27 -25.22171 -47.40806 31109 ft 514 kts 82°
2026-05-06 22:28 -25.21467 -47.36944 31435 ft 512 kts 83°
2026-05-06 22:28 -25.20767 -47.33093 31773 ft 511 kts 83°
2026-05-06 22:28 -25.20303 -47.30542 31959 ft 511 kts 83°
2026-05-06 22:28 -25.19601 -47.26689 32177 ft 513 kts 83°
2026-05-06 22:29 -25.18895 -47.22825 32397 ft 514 kts 83°
2026-05-06 22:29 -25.18185 -47.18958 32671 ft 514 kts 83°
2026-05-06 22:29 -25.17474 -47.15094 32978 ft 513 kts 83°
2026-05-06 22:29 -25.16764 -47.11237 33288 ft 512 kts 83°
2026-05-06 22:30 -25.15821 -47.06122 33586 ft 514 kts 84°
2026-05-06 22:30 -25.15310 -47.03518 33713 ft 517 kts 79°
2026-05-06 22:30 -25.13981 -46.99877 33872 ft 529 kts 62°
2026-05-06 22:30 -25.11820 -46.96671 34130 ft 533 kts 47°
2026-05-06 22:31 -25.08966 -46.94091 34451 ft 530 kts 30°
2026-05-06 22:31 -25.05789 -46.92050 34772 ft 527 kts 28°
2026-05-06 22:31 -25.02592 -46.90055 34928 ft 529 kts 28°
2026-05-06 22:31 -24.99390 -46.88049 35038 ft 532 kts 29°
2026-05-06 22:32 -24.92995 -46.83944 35115 ft 531 kts 30°
2026-05-06 22:32 -24.86711 -46.79827 35122 ft 526 kts 30°
2026-05-06 22:33 -24.80441 -46.75712 35125 ft 523 kts 30°
2026-05-06 22:33 -24.74185 -46.71621 35120 ft 522 kts 30°
2026-05-06 22:34 -24.67935 -46.67542 35133 ft 522 kts 30°
2026-05-06 22:34 -24.61692 -46.63457 35134 ft 523 kts 32°
2026-05-06 22:35 -24.56097 -46.58435 35138 ft 523 kts 45°
2026-05-06 22:35 -24.50894 -46.52812 35137 ft 526 kts 46°
2026-05-06 22:36 -24.45661 -46.47171 35134 ft 528 kts 46°
2026-05-06 22:36 -24.40368 -46.41557 35126 ft 530 kts 45°
2026-05-06 22:37 -24.35041 -46.35957 35138 ft 531 kts 45°
2026-05-06 22:37 -24.29701 -46.30353 35136 ft 531 kts 45°
2026-05-06 22:38 -24.24369 -46.24758 35126 ft 530 kts 45°
2026-05-06 22:38 -24.19046 -46.19176 35122 ft 529 kts 45°
2026-05-06 22:39 -24.17285 -46.17330 35120 ft 528 kts 45°